Weather in Belaya Krinica

Ukraine / Rovno District     50°36′17″N   26°23′12″E
temp.,
°C
wind,
m/s
gust,
m/s
humid.,
%
clouds,
%
prec.,
mm/h
press.,
hPa
HPBL,
m
17 october, sun
sun1700:00+8wnw3566100 0.0 1021256
03:00+7wnw3568100 0.0 1021200
06:00+8wnw3560100 0.0 1021186
09:00+8wnw4556100 0.0 10211198
12:00+9wnw455598 0.0 10221277
15:00+10wnw5552100 0.0 10211439
18:00+8wnw4553100 0.0 1021309
21:00+7wnw266191 0.0 1021245
18 october, mon
mon1800:00+5wsw3570100 0.0 102276
03:00+5wsw4869100 0.0 1021189
06:00+6wsw41065100 0.0 1021340
09:00+7wsw51065100 0.0 1021460
12:00+8w6773100 0.1 1022916
15:00+7w51083100 0.4 1022626
18:00+8w51076100 0.1 1021528
21:00+8w61179100 0.1 1022517
19 october, tue
tue1900:00+5wnw478992 0.0 1023149
03:00+6nnw4882100 0.2 1024575
06:00+4wnw229279 0.3 102621
09:00+4nnw258853 0.3 1028149
12:00+8nw345394 0.0 1028776
15:00+10wnw45365 0.0 10281232
18:00+7wnw2246100 0.0 102710
21:00+5ssw1148100 0.0 102810
20 october, wed
wed2000:00+5s3450100 0.0 102758
03:00+5s376189 0.0 1026134
06:00+4s4108597 0.0 1024169
09:00+6ssw51186100 0.0 1023260
12:00+13ssw61057100 0.0 1021652
15:00+15sw61050100 0.0 10191026
18:00+13sw41057100 0.0 1018331
21:00+13sw6135470 0.0 1017511
21 october, thu
thu2100:00+12sw51259100 0.0 1016324
03:00+10ssw41263100 0.0 1015257
06:00+11ssw51258100 0.0 1014287
09:00+11ssw51358100 0.0 1013290
12:00+16sw61444100 0.0 1012779
15:00+17sw71541100 0.0 10101165
18:00+15wsw7135513 0.0 1009606
21:00+13wsw51365100 0.0 1010452